Time,TemperatureF,DewpointF,PressureIn,WindDirection,WindDirectionDegrees,WindSpeedMPH,WindSpeedGustMPH,Humidity,HourlyPrecipIn,Conditions,Clouds,dailyrainin,SoftwareType,DateUTC
2017-11-22 00:07:00,57.1,54.0,30.02,SE,138,0.0,3.0,90,0.00,,,0.00,weatherlink.com 1.10,2017-11-22 05:07:00,
2017-11-22 00:22:00,57.2,55.0,30.01,SE,138,1.0,4.0,91,0.00,,,0.00,weatherlink.com 1.10,2017-11-22 05:22:00,
2017-11-22 00:52:00,57.7,55.0,29.99,SE,134,2.0,3.0,92,0.00,,,0.00,weatherlink.com 1.10,2017-11-22 05:52:00,
2017-11-22 01:07:00,58.1,56.0,29.99,SE,134,0.0,3.0,92,0.00,,,0.00,weatherlink.com 1.10,2017-11-22 06:07:00,
2017-11-22 01:22:00,58.3,56.0,29.98,SE,134,0.0,2.0,92,0.00,,,0.00,weatherlink.com 1.10,2017-11-22 06:22:00,
2017-11-22 01:37:00,58.4,56.0,29.97,SE,134,0.0,2.0,93,0.00,,,0.00,weatherlink.com 1.10,2017-11-22 06:37:00,
2017-11-22 01:52:00,58.5,57.0,29.96,SE,134,0.0,1.0,93,0.00,,,0.00,weatherlink.com 1.10,2017-11-22 06:52:00,
2017-11-22 02:07:00,58.5,57.0,29.96,SE,134,0.0,3.0,93,0.00,,,0.00,weatherlink.com 1.10,2017-11-22 07:07:00,
2017-11-22 02:37:00,58.9,57.0,29.95,SE,134,0.0,2.0,94,0.00,,,0.00,weatherlink.com 1.10,2017-11-22 07:37:00,
2017-11-22 02:52:00,59.3,58.0,29.93,SE,134,0.0,0.0,95,0.00,,,0.00,weatherlink.com 1.10,2017-11-22 07:52:00,
2017-11-22 03:07:00,59.7,58.0,29.93,SE,134,0.0,2.0,94,0.00,,,0.00,weatherlink.com 1.10,2017-11-22 08:07:00,
2017-11-22 03:37:00,59.9,59.0,29.91,SE,130,0.0,1.0,95,0.00,,,0.00,weatherlink.com 1.10,2017-11-22 08:37:00,
2017-11-22 04:22:00,60.7,60.0,29.91,SSE,150,2.0,3.0,96,0.00,,,0.00,weatherlink.com 1.10,2017-11-22 09:22:00,
2017-11-22 04:37:00,60.8,60.0,29.91,South,178,0.0,3.0,96,0.00,,,0.00,weatherlink.com 1.10,2017-11-22 09:37:00,
2017-11-22 04:52:00,60.8,60.0,29.90,South,191,0.0,1.0,96,0.00,,,0.00,weatherlink.com 1.10,2017-11-22 09:52:00,
2017-11-22 05:22:00,60.6,60.0,29.90,SSE,163,0.0,0.0,96,0.00,,,0.00,weatherlink.com 1.10,2017-11-22 10:22:00,
2017-11-22 05:37:00,60.4,59.0,29.89,SSE,163,0.0,0.0,96,0.00,,,0.00,weatherlink.com 1.10,2017-11-22 10:37:00,
2017-11-22 05:52:00,60.4,59.0,29.90,SSE,161,0.0,3.0,96,0.00,,,0.00,weatherlink.com 1.10,2017-11-22 10:52:00,
2017-11-22 06:08:00,60.3,59.0,29.89,SSE,161,0.0,0.0,96,0.00,,,0.00,weatherlink.com 1.10,2017-11-22 11:08:00,
2017-11-22 06:23:00,60.2,59.0,29.88,WNW,300,7.0,7.0,96,0.00,,,0.00,weatherlink.com 1.10,2017-11-22 11:23:00,
2017-11-22 06:38:00,60.0,59.0,29.88,WNW,293,1.0,6.0,96,0.00,,,0.00,weatherlink.com 1.10,2017-11-22 11:38:00,
2017-11-22 07:23:00,58.0,56.0,29.92,WNW,302,9.0,11.0,93,0.01,,,0.01,weatherlink.com 1.10,2017-11-22 12:23:00,
2017-11-22 07:38:00,56.7,55.0,29.92,NNW,348,2.0,16.0,93,0.01,,,0.01,weatherlink.com 1.10,2017-11-22 12:38:00,
2017-11-22 08:08:00,57.4,55.0,29.92,WNW,300,4.0,10.0,92,0.01,,,0.01,weatherlink.com 1.10,2017-11-22 13:08:00,
2017-11-22 08:22:00,57.3,55.0,29.92,NW,304,4.0,9.0,93,0.00,,,0.01,weatherlink.com 1.10,2017-11-22 13:22:00,
2017-11-22 08:54:00,56.7,55.0,29.91,NW,305,3.0,6.0,95,0.00,,,0.01,weatherlink.com 1.10,2017-11-22 13:54:00,
2017-11-22 09:09:00,56.9,56.0,29.90,West,280,2.0,6.0,95,0.00,,,0.01,weatherlink.com 1.10,2017-11-22 14:09:00,
2017-11-22 09:24:00,58.0,57.0,29.91,WNW,283,3.0,9.0,95,0.00,,,0.01,weatherlink.com 1.10,2017-11-22 14:24:00,
2017-11-22 09:39:00,59.4,57.0,29.91,West,276,4.0,10.0,92,0.00,,,0.01,weatherlink.com 1.10,2017-11-22 14:39:00,
2017-11-22 10:09:00,58.8,57.0,29.93,WNW,294,3.0,10.0,92,0.00,,,0.01,weatherlink.com 1.10,2017-11-22 15:09:00,
2017-11-22 10:24:00,60.1,58.0,29.93,WNW,296,8.0,9.0,91,0.00,,,0.01,weatherlink.com 1.10,2017-11-22 15:24:00,
2017-11-22 10:39:00,60.4,57.0,29.94,NW,307,4.0,11.0,89,0.00,,,0.01,weatherlink.com 1.10,2017-11-22 15:39:00,
2017-11-22 11:09:00,60.6,55.0,29.95,North,5,5.0,18.0,83,0.00,,,0.01,weatherlink.com 1.10,2017-11-22 16:09:00,
2017-11-22 11:55:00,60.7,52.0,29.94,NNW,330,8.0,14.0,74,0.00,,,0.01,weatherlink.com 1.10,2017-11-22 16:55:00,
2017-11-22 12:10:00,61.5,52.0,29.94,NNE,15,4.0,13.0,71,0.00,,,0.01,weatherlink.com 1.10,2017-11-22 17:10:00,